Location: Praha
(50.0755°N, 14.4378°E)
Time: 08:39:47
(UTC+01:00)

ISS - Visible Passes

Search period start: 09 December 2025 00:00
Search period end: 19 December 2025 00:00
Orbit: 416 x 421 km, 51.6° (Epoch: 08 December)

Date Brightness Start Highest point End Pass type
(mag) Time Alt. Az. Time Alt. Az. Time Alt. Az.
12 Dec -0.3 06:28:11 10° SSE 06:29:31 12° SE 06:30:52 10° ESE visible
14 Dec -1.4 06:27:10 10° SSW 06:30:00 25° SE 06:32:51 10° E visible
15 Dec -0.9 05:39:53 10° S 05:42:11 17° SE 05:44:30 10° E visible
15 Dec -3.4 07:15:10 10° WSW 07:18:32 69° SSE 07:21:54 10° ENE visible
16 Dec -0.7 04:53:49 11° SSE 04:54:24 12° SE 04:55:37 10° ESE visible
16 Dec -2.9 06:27:17 10° SW 06:30:34 50° SSE 06:33:51 10° ENE visible
17 Dec -2.3 05:41:24 26° SSW 05:42:37 35° SSE 05:45:44 10° E visible
17 Dec -3.8 07:15:52 10° W 07:19:15 78° NNW 07:22:38 10° ENE visible
18 Dec -1.2 04:55:46 21° ESE 04:55:46 21° ESE 04:57:30 10° E visible
18 Dec -3.8 06:28:43 17° WSW 06:31:10 87° SSE 06:34:34 10° ENE visible
